| time (UTC) | temp F | wind direction | speed MPH | gust MPH | rain 1hr in | rain 24hr in | rain mn in | humidity % | barometer mb |
| 20260905073027 | 77 | 177 | 0.0 | 0.0 | 0.00 | 0.96 | 0.00 | 89 | 1011.9 |
| 20260905072001 | 77 | 177 | 0.0 | 0.0 | 0.00 | 0.96 | 0.00 | 89 | 1012.1 |
| 20260905071003 | 77 | 177 | 0.0 | 0.0 | 0.00 | 0.96 | 0.00 | 89 | 1012.2 |
| 20260905070501 | 78 | 177 | 0.0 | 0.0 | 0.00 | 0.96 | 0.00 | 89 | 1012.3 |
| 20260905070030 | 78 | 177 | 0.0 | 0.0 | 0.00 | 0.96 | 0.00 | 89 | 1012.2 |
| 20260905065502 | 78 | 177 | 0.0 | 0.0 | 0.00 | 0.96 | 0.00 | 89 | 1012.2 |
| 20260905065003 | 78 | 177 | 0.0 | 0.0 | 0.00 | 0.96 | 0.00 | 89 | 1012.3 |
| 20260905064516 | 78 | 177 | 0.0 | 0.0 | 0.00 | 0.96 | 0.00 | 88 | 1012.3 |
| 20260905063500 | 78 | 177 | 0.0 | 0.0 | 0.00 | 0.96 | 0.00 | 88 | 1012.3 |
| 20260905063025 | 78 | 177 | 0.0 | 0.0 | 0.00 | 0.96 | 0.00 | 88 | 1012.4 |
| 20260905062500 | 78 | 177 | 0.0 | 0.0 | 0.00 | 0.96 | 0.00 | 88 | 1012.5 |
| 20260905062003 | 78 | 177 | 0.0 | 0.0 | 0.00 | 0.96 | 0.00 | 88 | 1012.5 |
| 20260905061003 | 78 | 177 | 0.0 | 0.0 | 0.00 | 0.96 | 0.00 | 87 | 1012.5 |
| 20260905060501 | 78 | 177 | 0.0 | 0.0 | 0.00 | 0.96 | 0.00 | 88 | 1012.5 |
| 20260905060025 | 78 | 177 | 0.0 | 0.0 | 0.00 | 0.96 | 0.00 | 87 | 1012.5 |
| 20260905055500 | 78 | 177 | 0.0 | 0.0 | 0.00 | 0.96 | 0.00 | 87 | 1012.5 |
| 20260905054003 | 79 | 177 | 0.0 | 0.0 | 0.00 | 0.96 | 0.00 | 87 | 1012.4 |
| 20260905053500 | 79 | 177 | 0.0 | 0.0 | 0.00 | 0.96 | 0.00 | 87 | 1012.5 |
| 20260905053023 | 79 | 177 | 0.0 | 0.0 | 0.00 | 0.96 | 0.00 | 86 | 1012.5 |
| 20260905052500 | 79 | 177 | 0.0 | 0.0 | 0.00 | 0.96 | 0.00 | 86 | 1012.6 |
| 20260905052001 | 79 | 177 | 0.0 | 0.0 | 0.00 | 0.96 | 0.00 | 86 | 1012.5 |
| 20260905051515 | 79 | 177 | 0.0 | 1.0 | 0.00 | 0.96 | 0.00 | 86 | 1012.5 |
| 20260905051001 | 79 | 177 | 0.0 | 1.0 | 0.00 | 0.96 | 0.00 | 86 | 1012.5 |
| 20260905050500 | 79 | 177 | 0.0 | 1.0 | 0.00 | 0.96 | 0.00 | 85 | 1012.4 |
| 20260905050027 | 79 | 177 | 0.0 | 1.0 | 0.00 | 0.96 | 0.96 | 85 | 1012.5 |
| 20260905045506 | 79 | 177 | 0.0 | 1.0 | 0.00 | 0.96 | 0.96 | 85 | 1012.5 |
| 20260905045006 | 80 | 177 | 0.0 | 1.0 | 0.00 | 0.96 | 0.96 | 85 | 1012.5 |
| 20260905044007 | 80 | 165 | 0.0 | 0.0 | 0.00 | 0.96 | 0.96 | 84 | 1012.6 |
| 20260905043506 | 80 | 165 | 0.0 | 1.0 | 0.00 | 0.96 | 0.96 | 84 | 1012.6 |
| 20260905043025 | 80 | 165 | 0.0 | 2.0 | 0.00 | 0.96 | 0.96 | 84 | 1012.5 |
| 20260905042506 | 80 | 165 | 0.0 | 2.0 | 0.00 | 0.96 | 0.96 | 83 | 1012.6 |
| 20260905042006 | 80 | 165 | 0.0 | 2.0 | 0.00 | 0.96 | 0.96 | 83 | 1012.6 |
| 20260905041521 | 80 | 137 | 0.0 | 2.0 | 0.00 | 0.96 | 0.96 | 83 | 1012.6 |
| 20260905041007 | 80 | 195 | 0.0 | 2.0 | 0.00 | 0.96 | 0.96 | 83 | 1012.6 |
| 20260905040505 | 80 | 165 | 0.0 | 2.0 | 0.00 | 0.96 | 0.96 | 83 | 1012.6 |
| 20260905040028 | 80 | 168 | 0.0 | 1.0 | 0.00 | 0.96 | 0.96 | 82 | 1012.7 |
| 20260905035506 | 80 | 168 | 0.0 | 1.0 | 0.00 | 0.96 | 0.96 | 82 | 1012.7 |
| 20260905035005 | 80 | 168 | 0.0 | 1.0 | 0.00 | 0.96 | 0.96 | 82 | 1012.8 |
| 20260905034521 | 80 | 168 | 0.0 | 3.0 | 0.00 | 0.96 | 0.96 | 82 | 1012.8 |
| 20260905034006 | 80 | 108 | 0.0 | 3.0 | 0.00 | 0.96 | 0.96 | 82 | 1012.8 |
| 20260905033026 | 80 | 103 | 0.0 | 1.0 | 0.00 | 0.96 | 0.96 | 82 | 1012.8 |
| 20260905032505 | 80 | 131 | 0.0 | 1.0 | 0.00 | 0.96 | 0.96 | 82 | 1012.7 |
| 20260905032005 | 80 | 131 | 0.0 | 2.0 | 0.00 | 0.96 | 0.96 | 82 | 1012.7 |
| 20260905031007 | 80 | 131 | 0.0 | 1.0 | 0.00 | 0.96 | 0.96 | 81 | 1012.8 |
| 20260905030028 | 80 | 131 | 0.0 | 1.0 | 0.00 | 0.96 | 0.96 | 81 | 1012.8 |
| 20260905025506 | 80 | 131 | 0.0 | 1.0 | 0.00 | 0.96 | 0.96 | 82 | 1012.8 |
| 20260905025006 | 80 | 131 | 0.0 | 0.0 | 0.00 | 0.96 | 0.96 | 82 | 1012.7 |
| 20260905024008 | 80 | 131 | 0.0 | 1.0 | 0.00 | 0.96 | 0.96 | 81 | 1012.6 |
| 20260905023506 | 80 | 131 | 0.0 | 1.0 | 0.00 | 0.96 | 0.96 | 81 | 1012.4 |
| 20260905023027 | 80 | 131 | 0.0 | 1.0 | 0.00 | 0.96 | 0.96 | 80 | 1012.4 |
| 20260905022506 | 79 | 131 | 0.0 | 1.0 | 0.00 | 0.96 | 0.96 | 80 | 1012.4 |
| 20260905022006 | 79 | 131 | 0.0 | 1.0 | 0.00 | 0.96 | 0.96 | 80 | 1012.3 |
| 20260905021524 | 79 | 131 | 0.0 | 1.0 | 0.00 | 0.96 | 0.96 | 80 | 1012.4 |
| 20260905021006 | 79 | 131 | 0.0 | 2.0 | 0.00 | 0.96 | 0.96 | 79 | 1012.3 |
| 20260905020505 | 79 | 94 | 0.0 | 2.0 | 0.00 | 0.96 | 0.96 | 79 | 1012.2 |
| 20260905020029 | 79 | 150 | 0.0 | 2.0 | 0.00 | 0.96 | 0.96 | 79 | 1012.2 |
| 20260905015504 | 79 | 106 | 1.0 | 2.0 | 0.00 | 0.96 | 0.96 | 79 | 1012.1 |
| 20260905015006 | 79 | 192 | 1.0 | 2.0 | 0.00 | 0.96 | 0.96 | 79 | 1011.9 |
| 20260905014520 | 79 | 88 | 1.0 | 4.0 | 0.00 | 0.96 | 0.96 | 80 | 1012.1 |
| 20260905014006 | 79 | 77 | 1.0 | 4.0 | 0.00 | 0.96 | 0.96 | 80 | 1012.0 |
| 20260905013505 | 79 | 115 | 1.0 | 2.0 | 0.00 | 0.96 | 0.96 | 81 | 1011.9 |
| 20260905013027 | 79 | 141 | 2.0 | 4.0 | 0.00 | 0.96 | 0.96 | 80 | 1011.8 |
| 20260905012505 | 79 | 141 | 2.0 | 5.0 | 0.00 | 0.96 | 0.96 | 79 | 1011.9 |
| 20260905011005 | 80 | 108 | 3.0 | 7.0 | 0.00 | 0.96 | 0.96 | 76 | 1011.8 |
| 20260905010505 | 81 | 116 | 3.0 | 7.0 | 0.00 | 0.96 | 0.96 | 74 | 1011.9 |
| 20260905010027 | 81 | 191 | 4.0 | 11.0 | 0.00 | 0.96 | 0.96 | 74 | 1011.8 |
| 20260905005503 | 81 | 353 | 3.0 | 9.0 | 0.00 | 0.96 | 0.96 | 75 | 1011.8 |
| 20260905005004 | 82 | 137 | 4.0 | 13.0 | 0.00 | 0.96 | 0.96 | 74 | 1011.9 |
| 20260905004519 | 83 | 353 | 5.0 | 13.0 | 0.00 | 0.96 | 0.96 | 72 | 1011.8 |
| 20260905004006 | 84 | 164 | 4.0 | 11.0 | 0.00 | 0.96 | 0.96 | 70 | 1011.9 |
| 20260905003503 | 86 | 177 | 3.0 | 11.0 | 0.00 | 0.96 | 0.96 | 68 | 1011.5 |
| 20260905003028 | 87 | 162 | 1.0 | 12.0 | 0.00 | 0.96 | 0.96 | 67 | 1011.7 |
| 20260905001519 | 88 | 85 | 2.0 | 5.0 | 0.00 | 0.96 | 0.96 | 66 | 1011.1 |
| 20260905001005 | 88 | 64 | 2.0 | 7.0 | 0.00 | 0.96 | 0.96 | 66 | 1011.1 |
| 20260905000504 | 88 | 68 | 2.0 | 8.0 | 0.00 | 0.96 | 0.96 | 66 | 1011.0 |
| 20260905000027 | 88 | 54 | 2.0 | 8.0 | 0.00 | 0.96 | 0.96 | 66 | 1011.1 |
| 20260904235504 | 88 | 29 | 2.0 | 5.0 | 0.00 | 0.96 | 0.96 | 66 | 1011.1 |
| 20260904235006 | 88 | 35 | 2.0 | 5.0 | 0.00 | 0.96 | 0.96 | 65 | 1011.2 |
| 20260904234518 | 89 | 75 | 2.0 | 8.0 | 0.00 | 0.96 | 0.96 | 64 | 1011.1 |
| 20260904234006 | 89 | 77 | 3.0 | 9.0 | 0.00 | 0.96 | 0.96 | 64 | 1011.1 |
| 20260904233505 | 90 | 330 | 2.0 | 9.0 | 0.00 | 0.96 | 0.96 | 64 | 1011.2 |
| 20260904233029 | 90 | 344 | 2.0 | 7.0 | 0.00 | 0.96 | 0.96 | 65 | 1011.1 |
| 20260904232505 | 90 | 80 | 3.0 | 10.0 | 0.00 | 0.96 | 0.96 | 64 | 1011.1 |
| 20260904232004 | 90 | 69 | 2.0 | 10.0 | 0.00 | 0.96 | 0.96 | 63 | 1011.0 |
| 20260904230504 | 90 | 43 | 3.0 | 7.0 | 0.00 | 0.96 | 0.96 | 62 | 1011.1 |
| 20260904230024 | 91 | 83 | 2.0 | 6.0 | 0.00 | 0.96 | 0.96 | 60 | 1011.0 |
| 20260904225504 | 92 | 111 | 2.0 | 5.0 | 0.00 | 0.96 | 0.96 | 59 | 1011.1 |
| 20260904225007 | 92 | 85 | 2.0 | 6.0 | 0.00 | 0.96 | 0.96 | 59 | 1011.1 |
| 20260904224519 | 92 | 116 | 2.0 | 6.0 | 0.00 | 0.96 | 0.96 | 58 | 1011.1 |
| 20260904224004 | 92 | 42 | 3.0 | 6.0 | 0.00 | 0.96 | 0.96 | 58 | 1011.0 |
| 20260904223503 | 92 | 101 | 3.0 | 6.0 | 0.00 | 0.96 | 0.96 | 60 | 1011.1 |
| 20260904223028 | 92 | 46 | 3.0 | 9.0 | 0.00 | 0.96 | 0.96 | 59 | 1011.1 |
| 20260904222504 | 93 | 70 | 2.0 | 7.0 | 0.00 | 0.96 | 0.96 | 56 | 1011.2 |
| 20260904222005 | 93 | 38 | 2.0 | 6.0 | 0.00 | 0.96 | 0.96 | 55 | 1011.2 |
| 20260904221519 | 93 | 54 | 2.0 | 4.0 | 0.00 | 0.96 | 0.96 | 53 | 1011.2 |
| 20260904221007 | 93 | 52 | 2.0 | 6.0 | 0.00 | 0.96 | 0.96 | 54 | 1011.3 |
| 20260904220504 | 93 | 257 | 1.0 | 6.0 | 0.00 | 0.96 | 0.96 | 53 | 1011.4 |
| 20260904220029 | 93 | 75 | 1.0 | 2.0 | 0.00 | 0.96 | 0.96 | 55 | 1011.4 |
| 20260904215505 | 91 | 134 | 1.0 | 6.0 | 0.00 | 0.97 | 0.96 | 55 | 1011.5 |
| 20260904215005 | 92 | 183 | 1.0 | 6.0 | 0.00 | 0.97 | 0.96 | 59 | 1011.4 |
| 20260904214518 | 92 | 131 | 1.0 | 3.0 | 0.00 | 0.97 | 0.96 | 57 | 1011.3 |
| 20260904213503 | 92 | 176 | 1.0 | 3.0 | 0.00 | 0.97 | 0.96 | 56 | 1011.4 |
| 20260904213026 | 91 | 227 | 1.0 | 2.0 | 0.00 | 0.97 | 0.96 | 61 | 1011.4 |
| 20260904212503 | 91 | 172 | 1.0 | 2.0 | 0.00 | 0.97 | 0.96 | 59 | 1011.5 |
| 20260904212005 | 91 | 250 | 1.0 | 3.0 | 0.00 | 0.97 | 0.96 | 60 | 1011.5 |
| 20260904211519 | 90 | 268 | 1.0 | 3.0 | 0.00 | 0.97 | 0.96 | 61 | 1011.5 |
| 20260904211006 | 89 | 290 | 1.0 | 4.0 | 0.00 | 0.97 | 0.96 | 64 | 1011.6 |
| 20260904210026 | 90 | 159 | 1.0 | 4.0 | 0.00 | 1.06 | 0.96 | 61 | 1011.8 |
| 20260904205503 | 91 | 196 | 2.0 | 5.0 | 0.00 | 1.06 | 0.96 | 61 | 1011.9 |
| 20260904205004 | 91 | 227 | 2.0 | 5.0 | 0.00 | 1.06 | 0.96 | 61 | 1012.0 |
| 20260904204517 | 90 | 246 | 1.0 | 3.0 | 0.00 | 1.06 | 0.96 | 63 | 1012.1 |
| 20260904203023 | 89 | 231 | 1.0 | 4.0 | 0.00 | 1.06 | 0.96 | 62 | 1012.5 |
| 20260904202504 | 90 | 246 | 2.0 | 4.0 | 0.00 | 1.06 | 0.96 | 64 | 1012.6 |
| 20260904202006 | 89 | 45 | 2.0 | 7.0 | 0.00 | 1.06 | 0.96 | 67 | 1012.6 |
| 20260904201518 | 90 | 174 | 1.0 | 6.0 | 0.00 | 1.06 | 0.96 | 66 | 1012.6 |
| 20260904201006 | 89 | 241 | 1.0 | 3.0 | 0.00 | 1.06 | 0.96 | 70 | 1012.6 |
| 20260904200503 | 88 | 3 | 1.0 | 3.0 | 0.00 | 1.06 | 0.96 | 69 | 1012.6 |
| 20260904200025 | 88 | 301 | 1.0 | 3.0 | 0.01 | 1.10 | 0.96 | 69 | 1012.6 |
| 20260904195502 | 87 | 172 | 1.0 | 3.0 | 0.01 | 1.10 | 0.96 | 69 | 1012.8 |
| 20260904195005 | 87 | 277 | 1.0 | 3.0 | 0.01 | 1.10 | 0.96 | 71 | 1012.8 |
| 20260904194518 | 86 | 103 | 1.0 | 3.0 | 0.01 | 1.10 | 0.96 | 72 | 1012.9 |
| 20260904194003 | 85 | 164 | 1.0 | 3.0 | 0.01 | 1.10 | 0.96 | 74 | 1013.0 |
| 20260904193503 | 85 | 154 | 1.0 | 2.0 | 0.01 | 1.10 | 0.96 | 77 | 1012.9 |
| 20260904192503 | 84 | 344 | 1.0 | 3.0 | 0.01 | 1.10 | 0.96 | 78 | 1013.0 |
| 20260904192009 | 84 | 94 | 1.0 | 3.0 | 0.01 | 1.10 | 0.96 | 81 | 1013.1 |
| 20260904191517 | 82 | 34 | 1.0 | 3.0 | 0.01 | 1.10 | 0.96 | 84 | 1013.2 |
| 20260904191004 | 82 | 112 | 0.0 | 2.0 | 0.01 | 1.10 | 0.96 | 85 | 1013.3 |
| 20260904190502 | 80 | 101 | 0.0 | 1.0 | 0.01 | 1.10 | 0.96 | 87 | 1013.5 |
| 20260904190026 | 80 | 101 | 0.0 | 3.0 | 0.00 | 1.61 | 0.95 | 86 | 1013.7 |
| 20260904185503 | 80 | 62 | 1.0 | 3.0 | 0.00 | 1.61 | 0.95 | 86 | 1013.7 |
| 20260904185004 | 80 | 36 | 1.0 | 2.0 | 0.00 | 1.61 | 0.95 | 86 | 1013.9 |
| 20260904184518 | 80 | 40 | 1.0 | 2.0 | 0.00 | 1.61 | 0.95 | 86 | 1013.9 |
| 20260904183022 | 79 | 77 | 2.0 | 4.0 | 0.00 | 1.61 | 0.95 | 86 | 1014.0 |
| 20260904182502 | 79 | 30 | 2.0 | 4.0 | 0.01 | 1.61 | 0.95 | 87 | 1014.1 |
| 20260904181518 | 78 | 21 | 1.0 | 3.0 | 0.42 | 1.61 | 0.95 | 87 | 1014.3 |
| 20260904181003 | 79 | 158 | 0.0 | 3.0 | 0.62 | 1.61 | 0.95 | 89 | 1014.4 |
| 20260904180502 | 79 | 82 | 0.0 | 2.0 | 0.88 | 1.61 | 0.95 | 89 | 1014.5 |
| 20260904180023 | 78 | 172 | 0.0 | 2.0 | 0.94 | 1.61 | 0.95 | 88 | 1014.5 |
| 20260904175003 | 77 | 33 | 1.0 | 3.0 | 0.94 | 1.61 | 0.95 | 89 | 1014.3 |
| 20260904174517 | 76 | 258 | 1.0 | 5.0 | 0.94 | 1.61 | 0.95 | 88 | 1014.3 |
| 20260904174004 | 75 | 284 | 2.0 | 5.0 | 0.94 | 1.61 | 0.95 | 87 | 1014.5 |
| 20260904173503 | 75 | 306 | 2.0 | 5.0 | 0.94 | 1.61 | 0.95 | 87 | 1014.4 |
| 20260904172502 | 74 | 331 | 2.0 | 5.0 | 0.93 | 1.60 | 0.94 | 78 | 1014.8 |
| 20260904172004 | 75 | 279 | 4.0 | 12.0 | 0.69 | 1.36 | 0.70 | 78 | 1015.2 |
| 20260904171517 | 75 | 249 | 6.0 | 16.0 | 0.52 | 1.19 | 0.53 | 78 | 1015.1 |
| 20260904171003 | 78 | 183 | 5.0 | 16.0 | 0.32 | 0.99 | 0.33 | 78 | 1015.0 |
| 20260904170503 | 81 | 261 | 5.0 | 13.0 | 0.04 | 0.71 | 0.05 | 74 | 1015.2 |
| 20260904170027 | 83 | 282 | 4.0 | 13.0 | 0.00 | 0.67 | 0.01 | 69 | 1015.2 |
| 20260904165005 | 88 | 198 | 2.0 | 5.0 | 0.00 | 0.67 | 0.01 | 73 | 1014.6 |
| 20260904164518 | 89 | 96 | 2.0 | 6.0 | 0.00 | 0.67 | 0.01 | 72 | 1014.3 |
| 20260904164004 | 89 | 61 | 2.0 | 7.0 | 0.00 | 0.67 | 0.01 | 71 | 1014.0 |
| 20260904163502 | 89 | 72 | 3.0 | 7.0 | 0.00 | 0.67 | 0.01 | 70 | 1014.1 |
| 20260904163025 | 89 | 353 | 3.0 | 8.0 | 0.00 | 0.67 | 0.01 | 69 | 1014.2 |
| 20260904162503 | 90 | 30 | 3.0 | 10.0 | 0.00 | 0.67 | 0.01 | 69 | 1014.0 |
| 20260904162006 | 89 | 101 | 3.0 | 10.0 | 0.00 | 0.67 | 0.01 | 69 | 1013.8 |
| 20260904161517 | 90 | 85 | 3.0 | 9.0 | 0.00 | 0.67 | 0.01 | 68 | 1013.8 |
| 20260904160502 | 89 | 180 | 3.0 | 9.0 | 0.00 | 0.67 | 0.01 | 67 | 1013.7 |
| 20260904160027 | 89 | 141 | 2.0 | 8.0 | 0.00 | 0.67 | 0.01 | 69 | 1013.7 |
| 20260904155502 | 89 | 129 | 2.0 | 7.0 | 0.00 | 0.67 | 0.01 | 68 | 1013.7 |
| 20260904155004 | 88 | 64 | 1.0 | 6.0 | 0.00 | 0.67 | 0.01 | 72 | 1013.7 |
| 20260904154518 | 88 | 138 | 2.0 | 4.0 | 0.00 | 0.67 | 0.01 | 72 | 1013.7 |
| 20260904154004 | 88 | 91 | 2.0 | 4.0 | 0.00 | 0.67 | 0.01 | 71 | 1013.7 |
| 20260904153502 | 88 | 85 | 2.0 | 6.0 | 0.00 | 0.67 | 0.01 | 72 | 1013.6 |
| 20260904152502 | 87 | 148 | 1.0 | 4.0 | 0.00 | 0.67 | 0.01 | 75 | 1013.6 |
| 20260904152004 | 86 | 166 | 1.0 | 4.0 | 0.00 | 0.67 | 0.01 | 77 | 1013.6 |
| 20260904151517 | 86 | 133 | 2.0 | 4.0 | 0.00 | 0.67 | 0.01 | 76 | 1013.6 |
| 20260904150502 | 86 | 35 | 2.0 | 6.0 | 0.00 | 0.67 | 0.01 | 79 | 1013.5 |
| 20260904150026 | 86 | 104 | 2.0 | 7.0 | 0.00 | 0.67 | 0.01 | 80 | 1013.5 |
| 20260904145003 | 85 | 160 | 1.0 | 4.0 | 0.00 | 0.67 | 0.01 | 84 | 1013.6 |
| 20260904144518 | 85 | 108 | 1.0 | 4.0 | 0.00 | 0.67 | 0.01 | 85 | 1013.7 |
| 20260904143502 | 83 | 60 | 1.0 | 3.0 | 0.00 | 0.67 | 0.01 | 87 | 1013.6 |
| 20260904143023 | 83 | 98 | 1.0 | 3.0 | 0.00 | 0.67 | 0.01 | 89 | 1013.6 |
| 20260904142004 | 82 | 96 | 1.0 | 3.0 | 0.00 | 0.67 | 0.01 | 91 | 1013.5 |
| 20260904141517 | 81 | 98 | 1.0 | 3.0 | 0.00 | 0.67 | 0.01 | 91 | 1013.6 |
| 20260904141003 | 81 | 63 | 1.0 | 3.0 | 0.00 | 0.67 | 0.01 | 92 | 1013.6 |
| 20260904140502 | 80 | 111 | 1.0 | 3.0 | 0.00 | 0.67 | 0.01 | 91 | 1013.5 |
| 20260904135503 | 80 | 74 | 1.0 | 3.0 | 0.00 | 0.67 | 0.01 | 92 | 1013.5 |
| 20260904135005 | 80 | 65 | 1.0 | 3.0 | 0.00 | 0.67 | 0.01 | 92 | 1013.5 |
| 20260904134518 | 80 | 139 | 1.0 | 4.0 | 0.00 | 0.67 | 0.01 | 92 | 1013.5 |
| 20260904134004 | 80 | 63 | 1.0 | 4.0 | 0.00 | 0.67 | 0.01 | 92 | 1013.6 |
| 20260904133502 | 80 | 96 | 1.0 | 3.0 | 0.00 | 0.67 | 0.01 | 92 | 1013.5 |
| 20260904133025 | 80 | 54 | 1.0 | 2.0 | 0.00 | 0.67 | 0.01 | 92 | 1013.5 |
| 20260904132502 | 80 | 106 | 1.0 | 2.0 | 0.00 | 0.67 | 0.01 | 92 | 1013.4 |
| 20260904132005 | 80 | 58 | 0.0 | 2.0 | 0.00 | 0.67 | 0.01 | 92 | 1013.4 |
| 20260904131518 | 79 | 48 | 0.0 | 2.0 | 0.00 | 0.67 | 0.01 | 92 | 1013.3 |
| 20260904131003 | 79 | 98 | 0.0 | 1.0 | 0.00 | 0.67 | 0.01 | 92 | 1013.3 |
| 20260904130503 | 79 | 98 | 0.0 | 1.0 | 0.00 | 0.67 | 0.01 | 92 | 1013.2 |
| 20260904130025 | 79 | 98 | 0.0 | 1.0 | 0.00 | 0.67 | 0.01 | 92 | 1013.2 |
| 20260904125500 | 79 | 98 | 0.0 | 1.0 | 0.00 | 0.67 | 0.01 | 92 | 1013.1 |
| 20260904124516 | 79 | 98 | 0.0 | 1.0 | 0.00 | 0.67 | 0.01 | 92 | 1012.9 |
| 20260904124003 | 79 | 98 | 0.0 | 1.0 | 0.00 | 0.67 | 0.01 | 92 | 1012.8 |
| 20260904123501 | 79 | 98 | 0.0 | 1.0 | 0.00 | 0.67 | 0.01 | 92 | 1012.7 |
| 20260904123025 | 79 | 98 | 0.0 | 1.0 | 0.00 | 0.67 | 0.01 | 92 | 1012.6 |
| 20260904122501 | 79 | 98 | 0.0 | 0.0 | 0.00 | 0.67 | 0.01 | 92 | 1012.6 |
| 20260904122003 | 79 | 98 | 0.0 | 0.0 | 0.00 | 0.67 | 0.01 | 92 | 1012.5 |
| 20260904121516 | 79 | 98 | 0.0 | 0.0 | 0.00 | 0.67 | 0.01 | 92 | 1012.5 |
| 20260904120501 | 79 | 98 | 0.0 | 2.0 | 0.00 | 0.67 | 0.01 | 92 | 1012.4 |
| 20260904120027 | 79 | 98 | 0.0 | 2.0 | 0.00 | 0.67 | 0.01 | 92 | 1012.4 |
| 20260904115002 | 79 | 128 | 0.0 | 1.0 | 0.00 | 0.67 | 0.01 | 92 | 1012.3 |
| 20260904114516 | 79 | 128 | 0.0 | 2.0 | 0.00 | 0.67 | 0.01 | 92 | 1012.4 |
| 20260904114003 | 79 | 156 | 0.0 | 2.0 | 0.01 | 0.67 | 0.01 | 92 | 1012.4 |
| 20260904113501 | 79 | 84 | 1.0 | 3.0 | 0.01 | 0.67 | 0.01 | 92 | 1012.5 |
| 20260904113025 | 79 | 91 | 0.0 | 3.0 | 0.01 | 0.67 | 0.01 | 92 | 1012.4 |
| 20260904112502 | 79 | 94 | 0.0 | 2.0 | 0.01 | 0.67 | 0.01 | 92 | 1012.5 |
| 20260904112003 | 79 | 94 | 0.0 | 2.0 | 0.01 | 0.67 | 0.01 | 92 | 1012.5 |
| 20260904111516 | 79 | 83 | 0.0 | 2.0 | 0.01 | 0.67 | 0.01 | 92 | 1012.4 |
| 20260904111002 | 79 | 83 | 0.0 | 1.0 | 0.01 | 0.67 | 0.01 | 92 | 1012.4 |
| 20260904110501 | 79 | 83 | 0.0 | 2.0 | 0.01 | 0.67 | 0.01 | 92 | 1012.4 |
| 20260904110024 | 79 | 71 | 0.0 | 2.0 | 0.01 | 0.67 | 0.01 | 92 | 1012.4 |
| 20260904105500 | 79 | 173 | 0.0 | 1.0 | 0.01 | 0.67 | 0.01 | 92 | 1012.3 |
| 20260904104515 | 79 | 173 | 0.0 | 1.0 | 0.01 | 0.67 | 0.01 | 92 | 1012.1 |
| 20260904104002 | 79 | 173 | 0.0 | 1.0 | 0.00 | 0.66 | 0.00 | 92 | 1012.0 |
| 20260904103500 | 79 | 173 | 0.0 | 1.0 | 0.00 | 0.66 | 0.00 | 92 | 1012.0 |
| 20260904103023 | 79 | 172 | 0.0 | 1.0 | 0.00 | 0.66 | 0.00 | 92 | 1012.1 |
| 20260904102500 | 79 | 173 | 0.0 | 0.0 | 0.00 | 0.66 | 0.00 | 92 | 1012.0 |
| 20260904101515 | 79 | 173 | 0.0 | 1.0 | 0.00 | 0.66 | 0.00 | 92 | 1012.0 |
| 20260904101000 | 79 | 173 | 0.0 | 1.0 | 0.00 | 0.66 | 0.00 | 91 | 1012.0 |
| 20260904100500 | 79 | 173 | 0.0 | 0.0 | 0.00 | 0.66 | 0.00 | 91 | 1012.0 |
| 20260904100028 | 79 | 173 | 0.0 | 0.0 | 0.00 | 0.66 | 0.00 | 91 | 1012.0 |
| 20260904095003 | 79 | 173 | 0.0 | 0.0 | 0.00 | 0.66 | 0.00 | 91 | 1012.0 |
| 20260904094516 | 79 | 173 | 0.0 | 0.0 | 0.00 | 0.66 | 0.00 | 91 | 1011.9 |
| 20260904094002 | 79 | 173 | 0.0 | 1.0 | 0.00 | 0.66 | 0.00 | 91 | 1011.9 |
| 20260904093501 | 79 | 173 | 0.0 | 1.0 | 0.00 | 0.66 | 0.00 | 91 | 1011.8 |
| 20260904093024 | 79 | 173 | 0.0 | 1.0 | 0.00 | 0.66 | 0.00 | 91 | 1011.8 |
| 20260904092501 | 79 | 173 | 0.0 | 1.0 | 0.00 | 0.66 | 0.00 | 91 | 1011.8 |
| 20260904092002 | 79 | 173 | 0.0 | 1.0 | 0.00 | 0.66 | 0.00 | 91 | 1011.8 |
| 20260904091516 | 79 | 173 | 0.0 | 1.0 | 0.00 | 0.66 | 0.00 | 91 | 1011.8 |
| 20260904091002 | 79 | 173 | 0.0 | 1.0 | 0.00 | 0.66 | 0.00 | 91 | 1011.8 |
| 20260904090501 | 79 | 173 | 0.0 | 0.0 | 0.00 | 0.66 | 0.00 | 91 | 1011.8 |
| 20260904090021 | 79 | 173 | 0.0 | 1.0 | 0.00 | 0.66 | 0.00 | 91 | 1011.8 |
| 20260904085501 | 79 | 173 | 0.0 | 1.0 | 0.00 | 0.66 | 0.00 | 91 | 1011.7 |
| 20260904085001 | 79 | 173 | 0.0 | 0.0 | 0.00 | 0.66 | 0.00 | 91 | 1011.8 |
| 20260904084515 | 79 | 173 | 0.0 | 0.0 | 0.00 | 0.66 | 0.00 | 91 | 1011.8 |
| 20260904084002 | 79 | 173 | 0.0 | 0.0 | 0.00 | 0.66 | 0.00 | 91 | 1011.8 |
| 20260904083501 | 79 | 173 | 0.0 | 0.0 | 0.00 | 0.66 | 0.00 | 91 | 1011.7 |
| 20260904083024 | 79 | 173 | 0.0 | 0.0 | 0.00 | 0.66 | 0.00 | 91 | 1011.7 |
| 20260904082500 | 79 | 173 | 0.0 | 0.0 | 0.00 | 0.66 | 0.00 | 91 | 1011.8 |
| 20260904082001 | 79 | 173 | 0.0 | 1.0 | 0.00 | 0.66 | 0.00 | 91 | 1011.8 |
| 20260904081516 | 79 | 173 | 0.0 | 0.0 | 0.00 | 0.66 | 0.00 | 91 | 1011.8 |
| 20260904081001 | 79 | 173 | 0.0 | 0.0 | 0.00 | 0.66 | 0.00 | 91 | 1011.8 |
| 20260904080500 | 79 | 173 | 0.0 | 0.0 | 0.00 | 0.66 | 0.00 | 91 | 1011.9 |
| 20260904080023 | 79 | 173 | 0.0 | 0.0 | 0.00 | 0.66 | 0.00 | 90 | 1011.9 |
| 20260904075500 | 79 | 173 | 0.0 | 0.0 | 0.00 | 0.66 | 0.00 | 90 | 1011.9 |
| 20260904075000 | 79 | 173 | 0.0 | 0.0 | 0.00 | 0.66 | 0.00 | 90 | 1011.9 |
| 20260904074515 | 79 | 173 | 0.0 | 0.0 | 0.00 | 0.66 | 0.00 | 90 | 1012.0 |
| 20260904074001 | 79 | 173 | 0.0 | 0.0 | 0.00 | 0.66 | 0.00 | 90 | 1012.1 |
| 20260904073500 | 79 | 173 | 0.0 | 0.0 | 0.00 | 0.66 | 0.00 | 90 | 1012.1 |